www.pogodaiklimat.ru

Погода и климат >> Архив погоды >> Россия >> Калининградская область >> Рыбачий


ПОГОДА в Рыбачем

  • Прогноз погоды в Рыбачем
  • Монитор погоды в Рыбачем

АРХИВ ПОГОДЫ в Рыбачем

Время (UTC), дата Ветер
(напр.,м/с)
 
Видим.   Явления Облачность Т
(С)
Тd
(С)
f
(%)
Тe
(С)
Тes
(С)
Комфортность P
(гПа)
Po
(гПа)
Тmin
(С)
Tmax
(С)
R
(мм)
R24
(мм)
S
(см)
09 14.07 СЗ 3-7
{8}
н/о н/о +17.4 +10.3 63 +17 +17 1013.2 1012.7
12 14.07 СЗ 4-8
{8}
н/о н/о +18.5 +11.3 63 +19 +19 1013.4 1012.9
15 14.07 СЗ 4-8
{10}
н/о н/о +18.5 +11.7 65 +19 +19 1013.3 1012.8
18 14.07 СЗ 2-4
{9}
н/о н/о +17.1 +11.2 68 +17 +17 1013.3 1012.8 +19.0
21 14.07 СЗ 2-2
{5}
н/о н/о +14.5 +12.7 89 +14 +14 1013.5 1013.0
00 15.07 З 1-2
{3}
н/о н/о +12.6 +11.4 92 +13 +13 1013.7 1013.2
03 15.07 СЗ 2-2
{3}
н/о н/о +14.0 +13.5 97 +13 +13 1013.4 1012.9 +10.8
06 15.07 СЗ 2-4
{4}
н/о н/о +17.3 +14.2 82 +18 +18 1013.6 1013.1 +10.8
09 15.07 З 3-6
{6}
н/о н/о +19.4 +14.1 71 +21 +21 комфорт 1013.7 1013.2
12 15.07 З 3-5
{6}
н/о н/о +20.1 +12.5 62 +22 +22 комфорт 1013.4 1012.9
15 15.07 З 3-5
{7}
н/о н/о +18.9 +13.3 70 +20 +20 1012.7 1012.2
18 15.07 З 1-2
{6}
н/о н/о +17.4 +13.9 80 +18 +18 1011.6 1011.1 +20.3
21 15.07 З 1-2
{2}
н/о н/о +14.4 +14.0 97 +15 +15 1011.4 1010.9
00 16.07 ЮЗ 2-4
{5}
н/о н/о +16.2 +13.9 86 +16 +16 1010.3 1009.9
06 16.07 ЮЗ 3-6
{7}
н/о н/о +16.0 +13.0 82 +16 +16 1006.9 1006.5 +13.6
09 16.07 СЗ 4-7
{9}
н/о н/о +16.9 +13.6 81 +16 +16 1006.6 1006.1
12 16.07 СЗ 3-7
{8}
н/о н/о +17.9 +11.9 68 +18 +18 1007.2 1006.7
15 16.07 З 4-7
{8}
н/о н/о +17.1 +11.2 68 +17 +17 1008.1 1007.6
18 16.07 З 2-5
{8}
н/о н/о +15.6 +11.2 75 +16 +16 1008.0 1007.6 +17.9
21 16.07 З 2-4
{5}
н/о н/о +13.8 +12.3 91 +13 +13 1007.6 1007.1
00 17.07 штиль 0
{7}
н/о н/о +12.6 +11.7 94 +12 +12 1007.0 1006.5
03 17.07 С 2-4
{4}
н/о н/о +12.7 +11.8 94 +12 +12 1006.7 1006.2 +11.8
06 17.07 С 3-6
{6}
н/о н/о +15.4 +11.8 79 +15 +15 1007.8 1007.3 +11.8
09 17.07 СЗ 3-8
{8}
н/о н/о +17.4 +12.6 73 +17 +17 1008.7 1008.2
12 17.07 СЗ 4-8
{8}
н/о н/о +17.8 +14.0 78 +18 +18 1009.3 1008.8
18 17.07 З 5-10
{11}
н/о н/о +16.2 +13.1 82 +15 +15 1010.7 1010.2 +18.7
21 17.07 СЗ 4-8
{10}
н/о н/о +15.7 +13.1 85 +15 +15 1011.1 1010.6
00 18.07 СЗ 3-6
{8}
н/о н/о +16.0 +13.3 84 +16 +16 1011.5 1011.0
03 18.07 СЗ 3-5
{8}
н/о н/о +16.0 +13.5 85 +16 +16 1011.5 1011.0 +15.5
06 18.07 СЗ 3-7
{7}
н/о н/о +16.6 +13.7 83 +16 +16 1012.1 1011.6 +15.5
09 18.07 СЗ 3-6
{7}
н/о н/о +17.4 +13.9 80 +17 +17 1012.9 1012.4
12 18.07 З 4-7
{7}
н/о н/о +18.9 +14.7 77 +20 +20 1013.2 1012.7
15 18.07 З 4-7
{9}
н/о н/о +18.5 +14.8 79 +19 +19 1013.5 1013.0
18 18.07 З 2-4
{8}
н/о н/о +16.9 +14.6 86 +17 +17 1013.3 1012.8 +19.0
21 18.07 СЗ 1-3
{5}
н/о н/о +15.4 +14.7 96 +16 +16 1013.7 1013.2
00 19.07 З 1-2
{3}
н/о н/о +13.6 +13.6 100 +14 +14 1013.8 1013.3
03 19.07 З 1-1
{2}
н/о н/о +12.2 +12.2 100 +12 +12 1014.2 1013.7 +11.3
06 19.07 ЮЗ 1-3
{3}
н/о н/о +18.2 +15.7 85 +20 +20 1014.2 1013.7 +11.3
09 19.07 З 1-2
{3}
н/о н/о +18.9 +15.3 80 +21 +21 комфорт 1014.7 1014.2
12 19.07 СВ 2-3
{4}
н/о н/о +20.6 +14.9 70 +24 +24 комфорт 1014.6 1014.1
15 19.07 С 2-4
{4}
н/о н/о +21.6 +11.2 52 +24 +24 комфорт 1014.0 1013.5
18 19.07 С 2-4
{4}
н/о н/о +18.9 +13.6 71 +20 +20 1013.6 1013.1 +21.8
21 19.07 С 2-3
{4}
н/о н/о +16.0 +13.8 87 +16 +16 1014.2 1013.8
00 20.07 С 2-4
{4}
н/о н/о +17.5 +15.3 87 +18 +18 1014.5 1014.0
03 20.07 С 2-3
{5}
н/о н/о +17.2 +15.3 89 +18 +18 1014.6 1014.1 +15.8
09 20.07 С 2-4
{4}
н/о н/о +20.9 +16.7 77 +25 +25 комфорт 1016.0 1015.5
15 20.07 СЗ 4-6
{6}
н/о н/о +23.0 +14.5 59 +27 +27 душно 1016.1 1015.6

 

Местоположение метеостанции Рыбачий (Калининградская область, Россия): широта 55.16 долгота 20.84 высота над уровнем моря 3 м.

В архиве по умолчанию представлена погода в Рыбачем за последнюю неделю. Архивные данные за месяц целиком и за предыдущие месяцы, начиная с января 2011 года, Вы можете получить, выбрав интересующий диапазон дат из раскрывающегося списка и нажав кнопку "Ввод!".


*Определитесь, кто Вы:
робот инопланетянин человек

Внимание! Время в таблицах - всемирное. Для получения местного времени необходимо прибавить поправку, которая равна 2 ч.

Смотрите также архив погоды в соседних городах и на ближайших метеорологических станциях:

Погода в Ниде (Литва) (21 км)
Погода в Шилуте (Литва) (44 км)
Погода в Пионерском (Калининградская область, Россия) (46 км)
Погода в Калининграде (Калининградская область, Россия) (53 км)
Погода в Рыбном Порту (Калининградская область, Россия) (57 км)
Погода в Kлайпеде (Литва) (65 км)
Погода в Советске (Калининградская область, Россия) (70 км)
Погода в Балтийске (Калининградская область, Россия) (84 км)
Погода в Черняховске (Калининградская область, Россия) (85 км)
Погода в Железнодорожном (Калининградская область, Россия) (93 км)

Пояснения к столбцам:

Ветер - указаны скорость ветра в м/с - средняя за 10 мин, порывы в срок и между сроками (в фигурных скобках) и направление, откуда дует ветер: С - северный, СВ - северо-восточный, В - восточный, ЮВ - юго-восточный, Ю - южный, ЮЗ - юго-западный, З - западный, СЗ - северо-западный.
Видимость - горизонтальная дальность видимости в метрах или километрах. При видимости от 1 до 10 км при отсутствии осадков обычно наблюдается дымка, при ухудшении видимости до 1 км и менее - туман. В сухую погоду видимость может ухудшаться дымом, пылью или мглою.
Явления - указаны атмосферные явления, наблюдавшиеся в срок или в последний час перед сроком; фигурными скобками обозначены явления, наблюдавшиеся между сроками (за 1-3 часа до срока); квадратными скобками обозначены град или гололедные отложения с указанием их диаметра в мм.
Облачность - указаны через наклонную черту общая и нижняя облачность в баллах и высота нижней границы облаков в метрах; квадратными скобками обозначены формы облаков: Ci - перистые, Cs - перисто-слоистые, Cc - перисто-кучевые, Ac - высококучевые, As - высокослоистые, Sc - слоисто-кучевые, Ns - слоисто-дождевые, Cu - кучевые, Cb - кучево-дождевые. Подробнее классификацию облаков см. в Атласе облаков (PDF).
T - Температура воздуха - температура, измеренная на высоте 2 м над землей.
Td - Температура точки росы - температура, при понижении до которой содержащийся в воздухе водяной пар достигнет насыщения.
f - Относительная влажность воздуха - влажноcть воздуха, измеренная на высоте 2 м над землей.
Te - Эффективная температура - температура, которую ощущает одетый по сезону человек в тени. Характеристика душности погоды. При расчете учитывается влияние влажности воздуха и скорости ветра на теплоощущения человека.
Tes - Эффективная температура на солнце - температура, которую ощущает человек, с поправкой на солнечный нагрев. Характеристика знойности погоды. Зависит от высоты солнца над горизонтом, облачности и скорости ветра. Ночью, в пасмурную погоду, а также при ветре 12 м/с и более поправка равна нулю.
P - Атмосферное давление - приведенное к уровню моря атмосферное давление.
Po - Атмосферное давление - измеренное на уровне метеостанции атмосферное давление.
Tmin - Минимальная температура - минимум температуры воздуха на высоте 2 м над землей.
Tmax - Максимальная температура - максимум температуры воздуха на высоте 2 м над землей.
R - Количество осадков - Количество выпавших осадков за период времени, мм. При наведении курсора мыши на число - период времени, за который выпало указанное количество осадков.
R24 - Количество осадков - Количество выпавших осадков за 24 часа, мм.
S - Снежный покров - Высота снежного покрова, см. При наведении курсора мыши на число - состояние снежного покрова и степень покрытия местности в баллах.